• Em Portugal
  • Lista de países
  • Para 7 dias
  • Temperatura da água
  • Mapas de satélite
  • Mapa do tempo
  • Widgets de tempo
  • user-avatar
    Iniciar Sessão

    Previsão horária em Mierkinie

    Hoje, 18 Outubro, Quinta-feira

    Tempo Temperatura Precipitação Vento Pressão Humidade
    00:00 +10°C° 0 mm 2 m/s 743 mmHg 67%
    01:00 +10°C° 0 mm 2 m/s 743 mmHg 69%
    02:00 +9°C° 0 mm 2 m/s 743 mmHg 73%
    03:00 +8°C° 0 mm 2 m/s 743 mmHg 76%
    04:00 +8°C° 0 mm 2 m/s 742 mmHg 79%
    05:00 +8°C° 0 mm 2 m/s 742 mmHg 82%
    06:00 +8°C° 0 mm 2 m/s 742 mmHg 82%
    07:00 +8°C° 0 mm 2 m/s 742 mmHg 83%
    08:00 +8°C° 0 mm 2 m/s 742 mmHg 84%
    09:00 +10°C° 0 mm 2 m/s 742 mmHg 76%
    10:00 +13°C° 0 mm 2 m/s 741 mmHg 68%
    11:00 +15°C° 0 mm 2 m/s 741 mmHg 60%
    12:00 +16°C° 0 mm 2 m/s 741 mmHg 56%
    13:00 +17°C° 0 mm 2 m/s 741 mmHg 52%
    14:00 +18°C° 0 mm 2 m/s 741 mmHg 48%
    15:00 +18°C° 0 mm 1 m/s 741 mmHg 52%
    16:00 +16°C° 0 mm 1 m/s 740 mmHg 57%
    17:00 +15°C° 0 mm 1 m/s 740 mmHg 61%
    18:00 +14°C° 0 mm 1 m/s 740 mmHg 64%
    19:00 +13°C° 0 mm 1 m/s 740 mmHg 66%
    20:00 +12°C° 0 mm 1 m/s 740 mmHg 69%
    21:00 +12°C° 0 mm 1 m/s 740 mmHg 71%
    22:00 +11°C° 0 mm 1 m/s 740 mmHg 73%
    23:00 +11°C° 0 mm 1 m/s 740 mmHg 74%

    Amanhã, 19 Outubro, Sexta-feira

    Tempo Temperatura Precipitação Vento Pressão Humidade
    00:00 +11°C° 0 mm 1 m/s 741 mmHg 77%
    01:00 +10°C° 0 mm 1 m/s 741 mmHg 80%
    02:00 +10°C° 0 mm 1 m/s 741 mmHg 82%
    03:00 +10°C° 0 mm 1 m/s 741 mmHg 85%
    04:00 +9°C° 0 mm 1 m/s 741 mmHg 88%
    05:00 +8°C° 0 mm 2 m/s 741 mmHg 91%
    06:00 +8°C° 0 mm 2 m/s 741 mmHg 92%
    07:00 +8°C° 0 mm 2 m/s 741 mmHg 93%
    08:00 +8°C° 0 mm 2 m/s 742 mmHg 94%
    09:00 +9°C° 0 mm 2 m/s 742 mmHg 90%
    10:00 +10°C° 0 mm 2 m/s 742 mmHg 85%
    11:00 +12°C° 0 mm 2 m/s 743 mmHg 81%
    12:00 +12°C° 0 mm 2 m/s 743 mmHg 80%
    13:00 +12°C° 0 mm 2 m/s 743 mmHg 78%
    14:00 +12°C° 0 mm 2 m/s 743 mmHg 77%
    15:00 +12°C° 0 mm 2 m/s 743 mmHg 77%
    16:00 +10°C° 0 mm 2 m/s 743 mmHg 77%
    17:00 +10°C° 0 mm 2 m/s 743 mmHg 77%
    18:00 +9°C° 0 mm 2 m/s 743 mmHg 80%
    19:00 +9°C° 0 mm 1 m/s 744 mmHg 83%
    20:00 +8°C° 0 mm 1 m/s 744 mmHg 86%
    21:00 +7°C° 0 mm 1 m/s 744 mmHg 87%
    22:00 +7°C° 0 mm 1 m/s 744 mmHg 89%
    23:00 +6°C° 0 mm 1 m/s 744 mmHg 90%

    Depois de amanhã, 20 Outubro, Sábado

    Tempo Temperatura Precipitação Vento Pressão Humidade
    00:00 +6°C° 0 mm 1 m/s 744 mmHg 90%
    01:00 +6°C° 0 mm 1 m/s 744 mmHg 91%
    02:00 +5°C° 0 mm 1 m/s 744 mmHg 92%
    03:00 +5°C° 0 mm 1 m/s 744 mmHg 92%
    04:00 +5°C° 0 mm 1 m/s 744 mmHg 93%
    05:00 +5°C° 0 mm 1 m/s 744 mmHg 93%
    06:00 +5°C° 0 mm 1 m/s 744 mmHg 93%
    07:00 +4°C° 0 mm 2 m/s 745 mmHg 93%
    08:00 +4°C° 0 mm 2 m/s 745 mmHg 93%
    09:00 +6°C° 0 mm 2 m/s 745 mmHg 86%
    10:00 +7°C° 0 mm 2 m/s 745 mmHg 78%
    11:00 +9°C° 0 mm 3 m/s 745 mmHg 71%
    12:00 +10°C° 0 mm 3 m/s 745 mmHg 69%
    13:00 +10°C° 0 mm 4 m/s 745 mmHg 68%
    14:00 +11°C° 0 mm 4 m/s 745 mmHg 67%
    15:00 +10°C° 0 mm 4 m/s 745 mmHg 69%
    16:00 +10°C° 0 mm 4 m/s 744 mmHg 71%
    17:00 +8°C° 0 mm 4 m/s 744 mmHg 73%
    18:00 +8°C° 0.1 mm 4 m/s 744 mmHg 75%
    19:00 +8°C° 0.1 mm 4 m/s 744 mmHg 76%
    20:00 +7°C° 0.1 mm 4 m/s 744 mmHg 78%
    21:00 +7°C° 0.1 mm 4 m/s 744 mmHg 82%
    22:00 +7°C° 0.1 mm 4 m/s 744 mmHg 86%
    23:00 +6°C° 0.1 mm 4 m/s 744 mmHg 90%

    21 Outubro, Domingo

    Tempo Temperatura Precipitação Vento Pressão Humidade
    00:00 +6°C° 0 mm 4 m/s 744 mmHg 91%
    01:00 +5°C° 0 mm 3 m/s 744 mmHg 92%
    02:00 +5°C° 0 mm 3 m/s 744 mmHg 93%
    03:00 +4°C° 0 mm 3 m/s 744 mmHg 93%
    04:00 +4°C° 0 mm 3 m/s 744 mmHg 93%
    05:00 +3°C° 0 mm 3 m/s 744 mmHg 93%
    06:00 +3°C° 0 mm 3 m/s 745 mmHg 92%
    07:00 +3°C° 0 mm 3 m/s 745 mmHg 92%
    08:00 +3°C° 0 mm 3 m/s 745 mmHg 91%
    09:00 +5°C° 0 mm 3 m/s 745 mmHg 83%
    10:00 +8°C° 0 mm 3 m/s 746 mmHg 75%
    11:00 +9°C° 0 mm 3 m/s 746 mmHg 67%
    12:00 +10°C° 0 mm 3 m/s 746 mmHg 64%
    13:00 +10°C° 0 mm 3 m/s 746 mmHg 61%
    14:00 +11°C° 0 mm 3 m/s 746 mmHg 57%
    15:00 +10°C° 0 mm 2 m/s 745 mmHg 62%
    16:00 +9°C° 0 mm 2 m/s 745 mmHg 66%
    17:00 +9°C° 0 mm 1 m/s 745 mmHg 70%
    18:00 +9°C° 0 mm 1 m/s 745 mmHg 74%
    19:00 +7°C° 0 mm 2 m/s 745 mmHg 78%
    20:00 +7°C° 0 mm 2 m/s 745 mmHg 81%
    21:00 +7°C° 0 mm 2 m/s 745 mmHg 83%
    22:00 +7°C° 0 mm 2 m/s 745 mmHg 85%
    23:00 +7°C° 0 mm 3 m/s 744 mmHg 86%

    22 Outubro, Segunda-feira

    Tempo Temperatura Precipitação Vento Pressão Humidade
    00:00 +8°C° 0 mm 3 m/s 744 mmHg 86%
    01:00 +8°C° 0 mm 3 m/s 744 mmHg 86%
    02:00 +7°C° 0 mm 4 m/s 744 mmHg 86%
    03:00 +7°C° 0.1 mm 4 m/s 743 mmHg 86%
    04:00 +8°C° 0.1 mm 4 m/s 743 mmHg 86%
    05:00 +8°C° 0.1 mm 4 m/s 743 mmHg 85%
    06:00 +8°C° 0 mm 5 m/s 742 mmHg 84%
    07:00 +8°C° 0 mm 5 m/s 742 mmHg 83%
    08:00 +8°C° 0 mm 5 m/s 741 mmHg 81%
    09:00 +8°C° 0.1 mm 5 m/s 741 mmHg 77%
    10:00 +9°C° 0.1 mm 6 m/s 741 mmHg 72%
    11:00 +9°C° 0.1 mm 6 m/s 741 mmHg 68%
    12:00 +9°C° 0.3 mm 5 m/s 741 mmHg 72%
    13:00 +9°C° 0.3 mm 5 m/s 741 mmHg 76%
    14:00 +8°C° 0.3 mm 5 m/s 740 mmHg 79%
    15:00 +8°C° 0.3 mm 5 m/s 740 mmHg 81%
    16:00 +8°C° 0.3 mm 4 m/s 740 mmHg 82%
    17:00 +8°C° 0.3 mm 4 m/s 740 mmHg 83%
    18:00 +8°C° 0 mm 3 m/s 740 mmHg 85%
    19:00 +7°C° 0 mm 3 m/s 740 mmHg 87%
    20:00 +5°C° 0 mm 3 m/s 740 mmHg 89%
    21:00 +5°C° 0.1 mm 3 m/s 740 mmHg 88%
    22:00 +7°C° 0.1 mm 3 m/s 740 mmHg 86%
    23:00 +7°C° 0.1 mm 3 m/s 739 mmHg 85%

    23 Outubro, Terça-feira

    Tempo Temperatura Precipitação Vento Pressão Humidade
    00:00 +5°C° 0 mm 3 m/s 739 mmHg 83%
    01:00 +5°C° 0 mm 3 m/s 739 mmHg 82%
    02:00 +5°C° 0 mm 3 m/s 738 mmHg 80%
    03:00 +4°C° 0.1 mm 3 m/s 738 mmHg 82%
    04:00 +4°C° 0.1 mm 4 m/s 737 mmHg 83%
    05:00 +4°C° 0.1 mm 4 m/s 737 mmHg 85%
    06:00 +4°C° 0.1 mm 4 m/s 737 mmHg 85%
    07:00 +4°C° 0.1 mm 4 m/s 736 mmHg 84%
    08:00 +3°C° 0.1 mm 4 m/s 736 mmHg 84%
    09:00 +3°C° 0 mm 5 m/s 736 mmHg 78%
    10:00 +5°C° 0 mm 5 m/s 736 mmHg 72%
    11:00 +7°C° 0 mm 5 m/s 736 mmHg 66%
    12:00 +7°C° 0 mm 5 m/s 735 mmHg 63%
    13:00 +7°C° 0 mm 5 m/s 735 mmHg 61%
    14:00 +8°C° 0 mm 5 m/s 735 mmHg 58%
    15:00 +7°C° 0 mm 4 m/s 734 mmHg 62%
    16:00 +7°C° 0 mm 3 m/s 734 mmHg 67%
    17:00 +6°C° 0 mm 2 m/s 734 mmHg 71%
    18:00 +6°C° 0.6 mm 2 m/s 733 mmHg 75%
    19:00 +5°C° 0.6 mm 3 m/s 733 mmHg 79%
    20:00 +4°C° 0.6 mm 3 m/s 733 mmHg 83%
    21:00 +4°C° 1.1 mm 3 m/s 733 mmHg 83%
    22:00 +4°C° 1.1 mm 4 m/s 733 mmHg 83%
    23:00 +4°C° 1.1 mm 4 m/s 732 mmHg 83%
    Mostrar mais